Weather History for Newport News, VA

Change the Weather History Date:

Thursday, October 11, 2012

  Actual Average Record
Temperature  
Mean Temperature 54 °F -  
Max Temperature 64 °F 72 °F 86 °F (1949)
Min Temperature 45 °F 52 °F 40 °F (1966)
Degree Days  
Heating Degree Days 11    
Growing Degree Days 4 (Base 50)    
Moisture  
Dew Point 41 °F    
Average Humidity 65    
Maximum Humidity 90    
Minimum Humidity 37    
Precipitation  
Precipitation 0.00 in - - ()
Sea Level Pressure  
Sea Level Pressure 30.22 in    
Wind  
Wind Speed 5 mph (NNE)    
Max Wind Speed 9 mph    
Max Gust Speed -    
Visibility 10 miles    
Events      
Averages and records for this station are not official NWS values.
T = Trace of Precipitation, MM = Missing Value Source: NWS Daily Summary

Daily Weather History Graph

Daily Weather History Graph

Search for Another Location

Airport:

Trip Planner

Search our weather history database for the weather conditions in past years. The results will help you decide how hot, cold, wet, or windy it might be!

Date:

Astronomy

Oct. 11, 2012 Rise Set
Actual Time 7:10 AM EDT 6:34 PM EDT
Civil Twilight 6:44 AM EDT 7:00 PM EDT
Nautical Twilight 6:14 AM EDT 7:30 PM EDT
Astronomical Twilight 5:44 AM EDT 8:00 PM EDT
Moon 2:52 AM EDT (10/11) 4:04 PM EDT (10/11)
Length of Visible Light 12h 15m
Length of Day
11h 23m
Waning Crescent, 18% of the Moon is Illuminated
Oct 11
Waning Crescent
Oct 15
New
Oct 21
First Quarter
Oct 29
Full
Nov 6
Last Quarter

Hourly Weather History & Observations

Time (EDT) Temp. Dew Point Humidity Pressure Visibility Wind Dir Wind Speed Gust Speed Precip Events Conditions
12:54 AM 57.0 °F 48.0 °F 72% 30.09 in 10.0 mi North 9.2 mph - N/A   Clear
1:54 AM 55.0 °F 46.0 °F 72% 30.11 in 10.0 mi NNE 5.8 mph - N/A   Clear
2:54 AM 53.1 °F 45.0 °F 74% 30.12 in 10.0 mi NNE 3.5 mph - N/A   Clear
3:54 AM 50.0 °F 44.1 °F 80% 30.14 in 10.0 mi North 5.8 mph - N/A   Clear
4:54 AM 50.0 °F 42.1 °F 74% 30.16 in 10.0 mi North 4.6 mph - N/A   Clear
5:54 AM 48.0 °F 42.1 °F 80% 30.19 in 10.0 mi North 4.6 mph - N/A   Clear
6:54 AM 46.0 °F 41.0 °F 83% 30.22 in 10.0 mi Calm Calm - N/A   Clear
7:54 AM 48.9 °F 41.0 °F 74% 30.25 in 10.0 mi Calm Calm - N/A   Clear
8:54 AM 54.0 °F 41.0 °F 62% 30.28 in 10.0 mi NNE 5.8 mph - N/A   Clear
9:54 AM 55.9 °F 39.9 °F 55% 30.30 in 10.0 mi NNE 5.8 mph - N/A   Clear
10:54 AM 57.9 °F 37.0 °F 46% 30.30 in 10.0 mi NE 9.2 mph - N/A   Clear
11:54 AM 60.1 °F 36.0 °F 41% 30.30 in 10.0 mi North 6.9 mph - N/A   Clear
12:54 PM 62.1 °F 35.1 °F 37% 30.28 in 10.0 mi NNE 5.8 mph - N/A   Clear
1:54 PM 62.1 °F 37.0 °F 39% 30.25 in 10.0 mi Variable 4.6 mph - N/A   Clear
2:54 PM 63.0 °F 37.9 °F 40% 30.25 in 10.0 mi Variable 4.6 mph - N/A   Clear
3:54 PM 63.0 °F 36.0 °F 37% 30.24 in 10.0 mi South 8.1 mph - N/A   Clear
4:54 PM 62.1 °F 36.0 °F 38% 30.24 in 10.0 mi WSW 6.9 mph - N/A   Clear
5:54 PM 59.0 °F 41.0 °F 51% 30.23 in 10.0 mi ESE 8.1 mph - N/A   Clear
6:54 PM 53.1 °F 43.0 °F 69% 30.24 in 10.0 mi Calm Calm - N/A   Clear
7:54 PM 48.9 °F 44.1 °F 83% 30.25 in 10.0 mi Calm Calm - N/A   Clear
8:54 PM 46.9 °F 43.0 °F 86% 30.25 in 10.0 mi Calm Calm - N/A   Clear
9:54 PM 46.0 °F 43.0 °F 89% 30.24 in 10.0 mi Calm Calm - N/A   Clear
10:54 PM 45.0 °F 42.1 °F 90% 30.24 in 10.0 mi Calm Calm - N/A   Clear
11:54 PM 45.0 °F 42.1 °F 90% 30.22 in 10.0 mi Calm Calm - N/A   Clear